Time,TemperatureF,DewpointF,PressureIn,WindDirection,WindDirectionDegrees,WindSpeedMPH,WindSpeedGustMPH,Humidity,HourlyPrecipIn,Conditions,Clouds,dailyrainin,SoftwareType,DateUTC
2013-06-14 00:02:00,70.7,20.8,29.78,West,269,6.0,12.0,15,0.00,,---,0.00,VWS V14.01,2013-06-14 07:02:00,
2013-06-14 00:07:00,70.7,20.8,29.78,West,279,6.0,12.0,15,0.00,,---,0.00,VWS V14.01,2013-06-14 07:07:00,
2013-06-14 00:12:00,70.7,20.8,29.78,West,269,3.0,12.0,15,0.00,,---,0.00,VWS V14.01,2013-06-14 07:12:00,
2013-06-14 00:17:00,70.5,20.7,29.78,West,278,5.0,12.0,15,0.00,,---,0.00,VWS V14.01,2013-06-14 07:17:00,
2013-06-14 00:22:00,70.5,19.0,29.78,West,259,5.0,12.0,14,0.00,,---,0.00,VWS V14.01,2013-06-14 07:22:00,
2013-06-14 00:27:00,70.7,20.8,29.78,West,281,7.0,15.0,15,0.00,,---,0.00,VWS V14.01,2013-06-14 07:27:00,
2013-06-14 00:32:00,70.7,20.8,29.77,West,277,8.0,15.0,15,0.00,,---,0.00,VWS V14.01,2013-06-14 07:32:00,
2013-06-14 00:37:00,70.4,20.6,29.77,WSW,246,3.0,15.0,15,0.00,,---,0.00,VWS V14.01,2013-06-14 07:37:00,
2013-06-14 00:42:00,70.2,20.4,29.77,West,266,3.0,15.0,15,0.00,,---,0.00,VWS V14.01,2013-06-14 07:42:00,
2013-06-14 00:47:00,70.1,21.9,29.77,WNW,283,12.0,17.0,16,0.00,,---,0.00,VWS V14.01,2013-06-14 07:47:00,
2013-06-14 00:52:00,70.0,21.8,29.77,WNW,288,12.0,17.0,16,0.00,,---,0.00,VWS V14.01,2013-06-14 07:52:00,
2013-06-14 00:57:00,69.9,23.1,29.77,WSW,249,3.0,17.0,17,0.00,,---,0.00,VWS V14.01,2013-06-14 07:57:00,
2013-06-14 01:02:00,69.7,23.0,29.76,WSW,240,6.0,11.0,17,0.00,,---,0.00,VWS V14.01,2013-06-14 08:02:00,
2013-06-14 01:07:00,69.8,24.4,29.76,West,264,7.0,15.0,18,0.00,,---,0.00,VWS V14.01,2013-06-14 08:07:00,
2013-06-14 01:12:00,70.1,24.7,29.76,WNW,283,5.0,15.0,18,0.00,,---,0.00,VWS V14.01,2013-06-14 08:12:00,
2013-06-14 01:17:00,69.9,25.8,29.76,WNW,294,8.0,15.0,19,0.00,,---,0.00,VWS V14.01,2013-06-14 08:17:00,
2013-06-14 01:22:00,69.9,25.8,29.76,WNW,291,4.0,15.0,19,0.00,,---,0.00,VWS V14.01,2013-06-14 08:22:00,
2013-06-14 01:27:00,69.7,26.9,29.76,WNW,298,6.0,15.0,20,0.00,,---,0.00,VWS V14.01,2013-06-14 08:27:00,
2013-06-14 01:32:00,69.6,26.8,29.76,WNW,288,5.0,15.0,20,0.00,,---,0.00,VWS V14.01,2013-06-14 08:32:00,
2013-06-14 01:37:00,69.3,26.5,29.76,West,269,5.0,15.0,20,0.00,,---,0.00,VWS V14.01,2013-06-14 08:37:00,
2013-06-14 01:42:00,69.0,26.3,29.76,West,281,7.0,15.0,20,0.00,,---,0.00,VWS V14.01,2013-06-14 08:42:00,
2013-06-14 01:47:00,69.5,24.2,29.76,West,271,3.0,15.0,18,0.00,,---,0.00,VWS V14.01,2013-06-14 08:47:00,
2013-06-14 01:52:00,70.3,26.1,29.75,WNW,284,5.0,15.0,19,0.00,,---,0.00,VWS V14.01,2013-06-14 08:52:00,
2013-06-14 01:57:00,70.7,25.1,29.76,WNW,283,9.0,15.0,18,0.00,,---,0.00,VWS V14.01,2013-06-14 08:57:00,
2013-06-14 02:02:00,71.1,25.5,29.75,WNW,300,12.0,20.0,18,0.00,,---,0.00,VWS V14.01,2013-06-14 09:02:00,
2013-06-14 02:07:00,71.0,25.4,29.75,NW,304,8.0,20.0,18,0.00,,---,0.00,VWS V14.01,2013-06-14 09:07:00,
2013-06-14 02:12:00,71.0,25.4,29.75,West,277,5.0,20.0,18,0.00,,---,0.00,VWS V14.01,2013-06-14 09:12:00,
2013-06-14 02:17:00,70.7,26.5,29.75,WNW,290,10.0,20.0,19,0.00,,---,0.00,VWS V14.01,2013-06-14 09:17:00,
2013-06-14 02:22:00,70.8,26.5,29.75,West,274,6.0,20.0,19,0.00,,---,0.00,VWS V14.01,2013-06-14 09:22:00,
2013-06-14 02:27:00,70.9,26.6,29.75,NW,309,5.0,20.0,19,0.00,,---,0.00,VWS V14.01,2013-06-14 09:27:00,
2013-06-14 02:32:00,70.5,27.5,29.75,West,262,4.0,20.0,20,0.00,,---,0.00,VWS V14.01,2013-06-14 09:32:00,
2013-06-14 02:38:00,70.5,27.5,29.75,West,274,10.0,20.0,20,0.00,,---,0.00,VWS V14.01,2013-06-14 09:38:00,
2013-06-14 02:43:00,70.3,27.4,29.75,WNW,301,4.0,20.0,20,0.00,,---,0.00,VWS V14.01,2013-06-14 09:43:00,
2013-06-14 02:48:00,69.7,28.0,29.74,NW,310,6.0,20.0,21,0.00,,---,0.00,VWS V14.01,2013-06-14 09:48:00,
2013-06-14 02:53:00,69.6,26.8,29.75,WNW,297,6.0,20.0,20,0.00,,---,0.00,VWS V14.01,2013-06-14 09:53:00,
2013-06-14 02:58:00,69.9,28.2,29.75,WNW,301,6.0,20.0,21,0.00,,---,0.00,VWS V14.01,2013-06-14 09:58:00,
2013-06-14 03:03:00,69.9,29.4,29.75,WNW,289,4.0,16.0,22,0.00,,---,0.00,VWS V14.01,2013-06-14 10:03:00,
2013-06-14 03:08:00,70.1,29.5,29.75,WNW,283,4.0,16.0,22,0.00,,---,0.00,VWS V14.01,2013-06-14 10:08:00,
2013-06-14 03:13:00,69.8,29.3,29.75,WNW,283,4.0,16.0,22,0.00,,---,0.00,VWS V14.01,2013-06-14 10:13:00,
2013-06-14 03:18:00,69.5,30.1,29.75,WSW,256,4.0,16.0,23,0.00,,---,0.00,VWS V14.01,2013-06-14 10:18:00,
2013-06-14 03:23:00,69.3,29.9,29.75,WSW,256,0.0,16.0,23,0.00,,---,0.00,VWS V14.01,2013-06-14 10:23:00,
2013-06-14 03:28:00,68.9,30.6,29.75,West,281,0.0,16.0,24,0.00,,---,0.00,VWS V14.01,2013-06-14 10:28:00,
2013-06-14 03:33:00,68.3,30.1,29.75,WNW,302,0.0,16.0,24,0.00,,---,0.00,VWS V14.01,2013-06-14 10:33:00,
2013-06-14 03:38:00,67.6,30.6,29.75,NW,326,0.0,16.0,25,0.00,,---,0.00,VWS V14.01,2013-06-14 10:38:00,
2013-06-14 03:43:00,66.8,30.8,29.75,WNW,287,5.0,16.0,26,0.00,,---,0.00,VWS V14.01,2013-06-14 10:43:00,
2013-06-14 03:48:00,65.9,29.1,29.75,SW,222,3.0,16.0,25,0.00,,---,0.00,VWS V14.01,2013-06-14 10:48:00,
2013-06-14 03:53:00,65.4,29.6,29.75,SW,235,0.0,16.0,26,0.00,,---,0.00,VWS V14.01,2013-06-14 10:53:00,
2013-06-14 03:58:00,64.9,29.2,29.75,SW,232,0.0,16.0,26,0.00,,---,0.00,VWS V14.01,2013-06-14 10:58:00,
2013-06-14 04:03:00,64.3,27.8,29.75,West,262,0.0,0.0,25,0.00,,---,0.00,VWS V14.01,2013-06-14 11:03:00,
2013-06-14 04:08:00,63.8,28.3,29.75,SSE,160,0.0,3.0,26,0.00,,---,0.00,VWS V14.01,2013-06-14 11:08:00,
2013-06-14 04:13:00,63.0,28.5,29.75,SSE,155,0.0,3.0,27,0.00,,---,0.00,VWS V14.01,2013-06-14 11:13:00,
2013-06-14 04:18:00,62.1,28.6,29.75,SSE,165,0.0,3.0,28,0.00,,---,0.00,VWS V14.01,2013-06-14 11:18:00,
2013-06-14 04:23:00,61.9,28.5,29.75,SSE,161,0.0,3.0,28,0.00,,---,0.00,VWS V14.01,2013-06-14 11:23:00,
2013-06-14 04:28:00,61.2,28.7,29.75,South,177,0.0,3.0,29,0.00,,---,0.00,VWS V14.01,2013-06-14 11:28:00,
2013-06-14 04:33:00,60.8,27.5,29.76,South,170,0.0,3.0,28,0.00,,---,0.00,VWS V14.01,2013-06-14 11:33:00,
2013-06-14 04:38:00,60.9,27.6,29.76,East,99,0.0,3.0,28,0.00,,---,0.00,VWS V14.01,2013-06-14 11:38:00,
2013-06-14 04:43:00,60.9,28.5,29.76,East,91,1.0,3.0,29,0.00,,---,0.00,VWS V14.01,2013-06-14 11:43:00,
2013-06-14 04:48:00,60.0,27.7,29.76,ESE,105,0.0,3.0,29,0.00,,---,0.00,VWS V14.01,2013-06-14 11:48:00,
2013-06-14 04:53:00,59.6,27.3,29.76,ESE,112,3.0,4.0,29,0.00,,---,0.00,VWS V14.01,2013-06-14 11:53:00,
2013-06-14 04:58:00,59.6,27.3,29.76,South,174,0.0,4.0,29,0.00,,---,0.00,VWS V14.01,2013-06-14 11:58:00,
2013-06-14 05:03:00,59.8,27.5,29.76,ESE,122,0.0,0.0,29,0.00,,---,0.00,VWS V14.01,2013-06-14 12:03:00,
2013-06-14 05:08:00,59.9,27.6,29.76,SSE,155,0.0,0.0,29,0.00,,---,0.00,VWS V14.01,2013-06-14 12:08:00,
2013-06-14 05:13:00,59.4,27.2,29.76,SSE,150,0.0,1.0,29,0.00,,---,0.00,VWS V14.01,2013-06-14 12:13:00,
2013-06-14 05:18:00,58.8,27.5,29.76,SSE,152,0.0,2.0,30,0.00,,---,0.00,VWS V14.01,2013-06-14 12:18:00,
2013-06-14 05:23:00,58.6,28.1,29.76,ESE,122,0.0,3.0,31,0.00,,---,0.00,VWS V14.01,2013-06-14 12:23:00,
2013-06-14 05:28:00,58.6,28.1,29.77,ESE,113,0.0,3.0,31,0.00,,---,0.00,VWS V14.01,2013-06-14 12:28:00,
2013-06-14 05:33:00,58.8,28.3,29.77,SE,141,0.0,3.0,31,0.00,,---,0.00,VWS V14.01,2013-06-14 12:33:00,
2013-06-14 05:38:00,59.7,28.2,29.77,ESE,122,1.0,3.0,30,0.00,,---,0.00,VWS V14.01,2013-06-14 12:38:00,
2013-06-14 05:43:00,59.9,29.2,29.77,SE,140,0.0,3.0,31,0.00,,---,0.00,VWS V14.01,2013-06-14 12:43:00,
2013-06-14 05:48:00,59.8,29.1,29.77,South,190,0.0,3.0,31,0.00,,---,0.00,VWS V14.01,2013-06-14 12:48:00,
2013-06-14 05:53:00,60.0,29.3,29.77,South,177,0.0,4.0,31,0.00,,---,0.00,VWS V14.01,2013-06-14 12:53:00,
2013-06-14 05:58:00,60.1,30.2,29.77,SE,136,0.0,4.0,32,0.00,,---,0.00,VWS V14.01,2013-06-14 12:58:00,
2013-06-14 06:03:00,60.1,30.2,29.77,SE,140,0.0,1.0,32,0.00,,---,0.00,VWS V14.01,2013-06-14 13:03:00,
2013-06-14 06:08:00,60.8,30.0,29.77,SSE,156,0.0,1.0,31,0.00,,---,0.00,VWS V14.01,2013-06-14 13:08:00,
2013-06-14 06:13:00,61.8,30.1,29.77,SE,139,0.0,1.0,30,0.00,,---,0.00,VWS V14.01,2013-06-14 13:13:00,
2013-06-14 06:18:00,62.4,29.8,29.78,SE,134,0.0,1.0,29,0.00,,---,0.00,VWS V14.01,2013-06-14 13:18:00,
2013-06-14 06:23:00,63.2,29.6,29.77,SSE,153,1.0,2.0,28,0.00,,---,0.00,VWS V14.01,2013-06-14 13:23:00,
2013-06-14 06:28:00,63.9,29.3,29.77,SSE,165,1.0,5.0,27,0.00,,---,0.00,VWS V14.01,2013-06-14 13:28:00,
2013-06-14 06:33:00,64.4,29.7,29.77,SSW,195,2.0,5.0,27,0.00,,---,0.00,VWS V14.01,2013-06-14 13:33:00,
2013-06-14 06:38:00,65.1,30.3,29.77,SSE,151,0.0,5.0,27,0.00,,---,0.00,VWS V14.01,2013-06-14 13:38:00,
2013-06-14 06:43:00,65.7,31.7,29.77,East,82,0.0,5.0,28,0.00,,---,0.00,VWS V14.01,2013-06-14 13:43:00,
2013-06-14 06:48:00,66.0,32.0,29.77,ESE,108,0.0,5.0,28,0.00,,---,0.00,VWS V14.01,2013-06-14 13:48:00,
2013-06-14 06:53:00,67.6,32.5,29.77,ESE,108,0.0,5.0,27,0.00,,---,0.00,VWS V14.01,2013-06-14 13:53:00,
2013-06-14 06:58:00,68.1,32.9,29.78,ESE,108,0.0,5.0,27,0.00,,---,0.00,VWS V14.01,2013-06-14 13:58:00,
2013-06-14 07:03:00,68.6,32.4,29.78,ESE,107,0.0,0.0,26,0.00,,---,0.00,VWS V14.01,2013-06-14 14:03:00,
2013-06-14 07:08:00,68.7,32.5,29.78,East,83,0.0,0.0,26,0.00,,---,0.00,VWS V14.01,2013-06-14 14:08:00,
2013-06-14 07:13:00,69.2,34.7,29.78,East,99,0.0,0.0,28,0.00,,---,0.00,VWS V14.01,2013-06-14 14:13:00,
2013-06-14 07:18:00,69.8,34.3,29.78,ESE,110,0.0,0.0,27,0.00,,---,0.00,VWS V14.01,2013-06-14 14:18:00,
2013-06-14 07:23:00,70.5,34.0,29.78,SE,136,0.0,0.0,26,0.00,,---,0.00,VWS V14.01,2013-06-14 14:23:00,
2013-06-14 07:28:00,71.7,34.0,29.78,South,169,0.0,0.0,25,0.00,,---,0.00,VWS V14.01,2013-06-14 14:28:00,
2013-06-14 07:33:00,73.1,33.1,29.78,South,169,0.0,0.0,23,0.00,,---,0.00,VWS V14.01,2013-06-14 14:33:00,
2013-06-14 07:38:00,74.2,35.1,29.78,South,169,0.0,0.0,24,0.00,,---,0.00,VWS V14.01,2013-06-14 14:38:00,
2013-06-14 07:43:00,73.9,34.9,29.78,South,170,0.0,0.0,24,0.00,,---,0.00,VWS V14.01,2013-06-14 14:43:00,
2013-06-14 07:48:00,73.4,35.5,29.78,NNW,342,0.0,0.0,25,0.00,,---,0.00,VWS V14.01,2013-06-14 14:48:00,
2013-06-14 07:53:00,72.8,33.9,29.79,NNW,330,0.0,0.0,24,0.00,,---,0.00,VWS V14.01,2013-06-14 14:53:00,
2013-06-14 07:58:00,72.7,33.9,29.79,NW,322,0.0,0.0,24,0.00,,---,0.00,VWS V14.01,2013-06-14 14:58:00,
2013-06-14 08:03:00,72.7,32.8,29.79,WNW,290,0.0,0.0,23,0.00,,---,0.00,VWS V14.01,2013-06-14 15:03:00,
2013-06-14 08:08:00,72.8,35.0,29.79,WNW,301,0.0,0.0,25,0.00,,---,0.00,VWS V14.01,2013-06-14 15:08:00,
2013-06-14 08:13:00,73.2,33.2,29.79,NW,323,0.0,0.0,23,0.00,,---,0.00,VWS V14.01,2013-06-14 15:13:00,
2013-06-14 08:19:00,73.5,32.4,29.79,North,359,0.0,0.0,22,0.00,,---,0.00,VWS V14.01,2013-06-14 15:19:00,
2013-06-14 08:24:00,73.9,34.9,29.79,North,8,0.0,0.0,24,0.00,,---,0.00,VWS V14.01,2013-06-14 15:24:00,
2013-06-14 08:29:00,74.4,35.3,29.79,North,9,0.0,0.0,24,0.00,,---,0.00,VWS V14.01,2013-06-14 15:29:00,
2013-06-14 08:34:00,74.5,33.2,29.79,NNE,30,0.0,1.0,22,0.00,,---,0.00,VWS V14.01,2013-06-14 15:34:00,
2013-06-14 08:39:00,74.7,32.2,29.79,East,82,0.0,2.0,21,0.00,,---,0.00,VWS V14.01,2013-06-14 15:39:00,
2013-06-14 08:44:00,75.0,31.2,29.79,ENE,63,0.0,2.0,20,0.00,,---,0.00,VWS V14.01,2013-06-14 15:44:00,
2013-06-14 08:49:00,75.4,31.6,29.79,NE,46,0.0,2.0,20,0.00,,---,0.00,VWS V14.01,2013-06-14 15:49:00,
2013-06-14 08:54:00,75.7,30.6,29.79,WNW,283,0.0,2.0,19,0.00,,---,0.00,VWS V14.01,2013-06-14 15:54:00,
2013-06-14 08:59:00,75.8,30.6,29.79,WSW,239,0.0,2.0,19,0.00,,---,0.00,VWS V14.01,2013-06-14 15:59:00,
2013-06-14 09:04:00,76.2,31.0,29.79,NW,314,0.0,0.0,19,0.00,,---,0.00,VWS V14.01,2013-06-14 16:04:00,
2013-06-14 09:09:00,76.8,31.5,29.78,NE,39,0.0,0.0,19,0.00,,---,0.00,VWS V14.01,2013-06-14 16:09:00,
2013-06-14 09:14:00,77.5,30.7,29.78,ESE,114,0.0,0.0,18,0.00,,---,0.00,VWS V14.01,2013-06-14 16:14:00,
2013-06-14 09:19:00,78.3,29.9,29.78,East,79,0.0,1.0,17,0.00,,---,0.00,VWS V14.01,2013-06-14 16:19:00,
2013-06-14 09:24:00,77.5,29.3,29.78,East,84,0.0,1.0,17,0.00,,---,0.00,VWS V14.01,2013-06-14 16:24:00,
2013-06-14 09:29:00,78.0,29.7,29.78,WNW,286,0.0,1.0,17,0.00,,---,0.00,VWS V14.01,2013-06-14 16:29:00,
2013-06-14 09:34:00,77.6,30.8,29.78,West,259,0.0,1.0,18,0.00,,---,0.00,VWS V14.01,2013-06-14 16:34:00,
2013-06-14 09:39:00,77.9,29.6,29.78,WNW,290,0.0,1.0,17,0.00,,---,0.00,VWS V14.01,2013-06-14 16:39:00,
2013-06-14 09:44:00,78.3,31.4,29.78,WNW,284,0.0,1.0,18,0.00,,---,0.00,VWS V14.01,2013-06-14 16:44:00,
2013-06-14 09:49:00,78.5,28.6,29.78,NE,39,3.0,6.0,16,0.00,,---,0.00,VWS V14.01,2013-06-14 16:49:00,
2013-06-14 09:54:00,78.4,30.0,29.78,NE,34,0.0,6.0,17,0.00,,---,0.00,VWS V14.01,2013-06-14 16:54:00,
2013-06-14 09:59:00,79.3,30.8,29.78,North,10,2.0,6.0,17,0.00,,---,0.00,VWS V14.01,2013-06-14 16:59:00,
2013-06-14 10:04:00,79.5,29.4,29.78,NE,42,0.0,5.0,16,0.00,,---,0.00,VWS V14.01,2013-06-14 17:04:00,
2013-06-14 10:09:00,79.5,29.4,29.77,NW,304,0.0,5.0,16,0.00,,---,0.00,VWS V14.01,2013-06-14 17:09:00,
2013-06-14 10:14:00,79.6,29.5,29.77,NNW,348,0.0,5.0,16,0.00,,---,0.00,VWS V14.01,2013-06-14 17:14:00,
2013-06-14 10:19:00,79.8,29.7,29.77,SW,221,0.0,5.0,16,0.00,,---,0.00,VWS V14.01,2013-06-14 17:19:00,
2013-06-14 10:24:00,81.3,29.3,29.77,SW,226,0.0,5.0,15,0.00,,---,0.00,VWS V14.01,2013-06-14 17:24:00,
2013-06-14 10:29:00,82.2,28.3,29.77,SSW,200,1.0,5.0,14,0.00,,---,0.00,VWS V14.01,2013-06-14 17:29:00,
2013-06-14 10:34:00,81.7,27.9,29.77,SW,229,0.0,5.0,14,0.00,,---,0.00,VWS V14.01,2013-06-14 17:34:00,
2013-06-14 10:39:00,81.9,31.4,29.76,North,1,0.0,5.0,16,0.00,,---,0.00,VWS V14.01,2013-06-14 17:39:00,
2013-06-14 10:44:00,82.1,33.0,29.76,ENE,66,0.0,5.0,17,0.00,,---,0.00,VWS V14.01,2013-06-14 17:44:00,
2013-06-14 10:49:00,81.7,27.9,29.76,East,100,0.0,5.0,14,0.00,,---,0.00,VWS V14.01,2013-06-14 17:49:00,
2013-06-14 10:54:00,81.5,27.8,29.76,North,7,0.0,5.0,14,0.00,,---,0.00,VWS V14.01,2013-06-14 17:54:00,
2013-06-14 10:59:00,81.3,25.8,29.76,East,91,0.0,6.0,13,0.00,,---,0.00,VWS V14.01,2013-06-14 17:59:00,
2013-06-14 11:04:00,82.2,28.3,29.75,NE,51,2.0,4.0,14,0.00,,---,0.00,VWS V14.01,2013-06-14 18:04:00,
2013-06-14 11:09:00,82.7,26.9,29.75,NNE,26,7.0,8.0,13,0.00,,---,0.00,VWS V14.01,2013-06-14 18:09:00,
2013-06-14 11:14:00,82.4,28.5,29.75,NNW,342,0.0,9.0,14,0.00,,---,0.00,VWS V14.01,2013-06-14 18:14:00,
2013-06-14 11:19:00,82.2,28.3,29.75,NNW,348,3.0,9.0,14,0.00,,---,0.00,VWS V14.01,2013-06-14 18:19:00,
2013-06-14 11:24:00,82.5,28.5,29.75,West,260,0.0,9.0,14,0.00,,---,0.00,VWS V14.01,2013-06-14 18:24:00,
2013-06-14 11:29:00,83.5,25.6,29.75,NW,323,2.0,9.0,12,0.00,,---,0.00,VWS V14.01,2013-06-14 18:29:00,
2013-06-14 11:34:00,83.5,25.6,29.75,North,9,5.0,9.0,12,0.00,,---,0.00,VWS V14.01,2013-06-14 18:34:00,
2013-06-14 11:39:00,83.7,27.7,29.75,NE,44,0.0,9.0,13,0.00,,---,0.00,VWS V14.01,2013-06-14 18:39:00,
2013-06-14 11:44:00,84.3,28.2,29.75,SSE,153,0.0,9.0,13,0.00,,---,0.00,VWS V14.01,2013-06-14 18:44:00,
2013-06-14 11:49:00,84.8,26.6,29.75,NNE,33,6.0,9.0,12,0.00,,---,0.00,VWS V14.01,2013-06-14 18:49:00,
2013-06-14 11:54:00,84.6,24.4,29.75,East,86,5.0,9.0,11,0.00,,---,0.00,VWS V14.01,2013-06-14 18:54:00,
2013-06-14 11:59:00,84.6,26.5,29.74,NNE,20,5.0,6.0,12,0.00,,---,0.00,VWS V14.01,2013-06-14 18:59:00,
2013-06-14 12:04:00,84.6,26.5,29.74,ESE,108,3.0,6.0,12,0.00,,---,0.00,VWS V14.01,2013-06-14 19:04:00,
2013-06-14 12:09:00,85.3,27.0,29.74,SE,144,0.0,6.0,12,0.00,,---,0.00,VWS V14.01,2013-06-14 19:09:00,
2013-06-14 12:14:00,85.9,25.4,29.74,NNE,17,1.0,7.0,11,0.00,,---,0.00,VWS V14.01,2013-06-14 19:14:00,
2013-06-14 12:19:00,86.0,27.5,29.73,ESE,103,0.0,7.0,12,0.00,,---,0.00,VWS V14.01,2013-06-14 19:19:00,
2013-06-14 12:24:00,86.1,25.5,29.73,NNE,26,6.0,8.0,11,0.00,,---,0.00,VWS V14.01,2013-06-14 19:24:00,
2013-06-14 12:29:00,85.9,27.5,29.73,NE,35,1.0,10.0,12,0.00,,---,0.00,VWS V14.01,2013-06-14 19:29:00,
2013-06-14 12:34:00,85.4,27.1,29.73,SW,226,0.0,10.0,12,0.00,,---,0.00,VWS V14.01,2013-06-14 19:34:00,
2013-06-14 12:39:00,85.5,27.1,29.72,NNW,337,1.0,10.0,12,0.00,,---,0.00,VWS V14.01,2013-06-14 19:39:00,
2013-06-14 12:44:00,86.0,27.5,29.72,West,281,0.0,10.0,12,0.00,,---,0.00,VWS V14.01,2013-06-14 19:44:00,
2013-06-14 12:49:00,87.2,28.5,29.72,NNE,18,0.0,10.0,12,0.00,,---,0.00,VWS V14.01,2013-06-14 19:49:00,
2013-06-14 12:54:00,87.6,28.8,29.72,NE,37,3.0,10.0,12,0.00,,---,0.00,VWS V14.01,2013-06-14 19:54:00,
2013-06-14 12:59:00,87.3,26.4,29.72,WNW,285,0.0,0.0,11,0.00,,---,0.00,VWS V14.01,2013-06-14 19:59:00,
2013-06-14 13:04:00,87.2,28.5,29.72,SW,214,0.0,7.0,12,0.00,,---,0.00,VWS V14.01,2013-06-14 20:04:00,
2013-06-14 13:09:00,87.9,29.0,29.71,North,11,7.0,7.0,12,0.00,,---,0.00,VWS V14.01,2013-06-14 20:09:00,
2013-06-14 13:14:00,88.7,29.6,29.71,North,3,11.0,11.0,12,0.00,,---,0.00,VWS V14.01,2013-06-14 20:14:00,
2013-06-14 13:19:00,88.5,27.4,29.71,West,276,3.0,11.0,11,0.00,,---,0.00,VWS V14.01,2013-06-14 20:19:00,
2013-06-14 13:24:00,88.0,27.0,29.71,NE,37,0.0,11.0,11,0.00,,---,0.00,VWS V14.01,2013-06-14 20:24:00,
2013-06-14 13:29:00,88.6,29.5,29.71,NNW,345,1.0,11.0,12,0.00,,---,0.00,VWS V14.01,2013-06-14 20:29:00,
2013-06-14 13:34:00,88.9,27.7,29.70,West,273,0.0,11.0,11,0.00,,---,0.00,VWS V14.01,2013-06-14 20:34:00,
2013-06-14 13:39:00,89.5,32.2,29.70,WNW,286,0.0,11.0,13,0.00,,---,0.00,VWS V14.01,2013-06-14 20:39:00,
2013-06-14 13:44:00,90.1,28.6,29.70,ENE,67,0.0,11.0,11,0.00,,---,0.00,VWS V14.01,2013-06-14 20:44:00,
2013-06-14 13:49:00,90.2,30.8,29.70,WNW,298,0.0,11.0,12,0.00,,---,0.00,VWS V14.01,2013-06-14 20:49:00,
2013-06-14 13:54:00,89.7,30.4,29.69,SW,218,1.0,11.0,12,0.00,,---,0.00,VWS V14.01,2013-06-14 20:54:00,
2013-06-14 13:59:00,90.0,30.6,29.69,SSW,193,0.0,0.0,12,0.00,,---,0.00,VWS V14.01,2013-06-14 20:59:00,
2013-06-14 14:04:00,89.8,30.5,29.69,West,277,0.0,6.0,12,0.00,,---,0.00,VWS V14.01,2013-06-14 21:04:00,
2013-06-14 14:09:00,90.0,30.6,29.69,West,269,0.0,6.0,12,0.00,,---,0.00,VWS V14.01,2013-06-14 21:09:00,
2013-06-14 14:14:00,90.8,40.0,29.69,WNW,283,6.0,11.0,17,0.00,,---,0.00,VWS V14.01,2013-06-14 21:14:00,
2013-06-14 14:19:00,90.8,40.0,29.69,SW,219,11.0,16.0,17,0.00,,---,0.00,VWS V14.01,2013-06-14 21:19:00,
2013-06-14 14:24:00,90.6,41.3,29.69,WSW,239,9.0,16.0,18,0.00,,---,0.00,VWS V14.01,2013-06-14 21:24:00,
2013-06-14 14:29:00,90.1,42.3,29.69,SW,218,8.0,16.0,19,0.00,,---,0.00,VWS V14.01,2013-06-14 21:29:00,
2013-06-14 14:34:00,89.7,40.6,29.69,SW,216,14.0,16.0,18,0.00,,---,0.00,VWS V14.01,2013-06-14 21:34:00,
2013-06-14 14:39:00,89.2,42.9,29.68,WSW,255,15.0,23.0,20,0.00,,---,0.00,VWS V14.01,2013-06-14 21:39:00,
2013-06-14 14:44:00,89.1,44.1,29.68,SW,215,11.0,23.0,21,0.00,,---,0.00,VWS V14.01,2013-06-14 21:44:00,
2013-06-14 14:49:00,89.1,42.8,29.68,SW,228,14.0,23.0,20,0.00,,---,0.00,VWS V14.01,2013-06-14 21:49:00,
2013-06-14 14:54:00,89.0,42.8,29.68,SW,225,12.0,23.0,20,0.00,,---,0.00,VWS V14.01,2013-06-14 21:54:00,
2013-06-14 15:00:00,88.4,44.8,29.68,WSW,245,11.0,16.0,22,0.00,,---,0.00,VWS V14.01,2013-06-14 22:00:00,
2013-06-14 15:05:00,88.4,43.5,29.68,SW,236,10.0,21.0,21,0.00,,---,0.00,VWS V14.01,2013-06-14 22:05:00,
2013-06-14 15:10:00,88.4,45.9,29.68,SW,229,10.0,21.0,23,0.00,,---,0.00,VWS V14.01,2013-06-14 22:10:00,
2013-06-14 15:15:00,88.5,44.8,29.68,SSW,211,8.0,21.0,22,0.00,,---,0.00,VWS V14.01,2013-06-14 22:15:00,
2013-06-14 15:20:00,88.5,44.8,29.67,SW,221,16.0,22.0,22,0.00,,---,0.00,VWS V14.01,2013-06-14 22:20:00,
2013-06-14 15:25:00,88.3,44.7,29.67,SSW,205,9.0,22.0,22,0.00,,---,0.00,VWS V14.01,2013-06-14 22:25:00,
2013-06-14 15:30:00,88.3,44.7,29.67,SW,225,9.0,22.0,22,0.00,,---,0.00,VWS V14.01,2013-06-14 22:30:00,
2013-06-14 15:35:00,88.2,43.4,29.67,SSW,210,13.0,22.0,21,0.00,,---,0.00,VWS V14.01,2013-06-14 22:35:00,
2013-06-14 15:40:00,87.8,44.3,29.67,SW,219,19.0,22.0,22,0.00,,---,0.00,VWS V14.01,2013-06-14 22:40:00,
2013-06-14 15:45:00,87.7,45.3,29.67,SSW,212,15.0,22.0,23,0.00,,---,0.00,VWS V14.01,2013-06-14 22:45:00,
2013-06-14 15:50:00,87.8,45.4,29.67,SSW,212,14.0,22.0,23,0.00,,---,0.00,VWS V14.01,2013-06-14 22:50:00,
2013-06-14 15:55:00,87.6,44.1,29.67,SW,226,13.0,22.0,22,0.00,,---,0.00,VWS V14.01,2013-06-14 22:55:00,
2013-06-14 16:00:00,87.3,42.6,29.67,SW,219,20.0,20.0,21,0.00,,---,0.00,VWS V14.01,2013-06-14 23:00:00,
2013-06-14 16:05:00,87.0,41.1,29.67,SW,222,11.0,20.0,20,0.00,,---,0.00,VWS V14.01,2013-06-14 23:05:00,
2013-06-14 16:10:00,86.8,42.2,29.66,West,262,9.0,20.0,21,0.00,,---,0.00,VWS V14.01,2013-06-14 23:10:00,
2013-06-14 16:15:00,87.1,42.5,29.66,SW,224,10.0,20.0,21,0.00,,---,0.00,VWS V14.01,2013-06-14 23:15:00,
2013-06-14 16:20:00,86.8,39.6,29.66,SW,228,20.0,22.0,19,0.00,,---,0.00,VWS V14.01,2013-06-14 23:20:00,
2013-06-14 16:25:00,86.6,39.5,29.66,SW,224,5.0,22.0,19,0.00,,---,0.00,VWS V14.01,2013-06-14 23:25:00,
2013-06-14 16:30:00,86.5,38.0,29.66,West,264,13.0,22.0,18,0.00,,---,0.00,VWS V14.01,2013-06-14 23:30:00,
2013-06-14 16:35:00,86.7,36.7,29.66,SW,236,9.0,22.0,17,0.00,,---,0.00,VWS V14.01,2013-06-14 23:35:00,
2013-06-14 16:40:00,86.6,35.1,29.66,SW,235,13.0,22.0,16,0.00,,---,0.00,VWS V14.01,2013-06-14 23:40:00,
2013-06-14 16:45:00,86.4,36.5,29.66,West,260,10.0,22.0,17,0.00,,---,0.00,VWS V14.01,2013-06-14 23:45:00,
2013-06-14 16:50:00,86.0,33.0,29.66,WSW,239,7.0,22.0,15,0.00,,---,0.00,VWS V14.01,2013-06-14 23:50:00,
2013-06-14 16:55:00,86.1,33.1,29.66,SW,215,6.0,22.0,15,0.00,,---,0.00,VWS V14.01,2013-06-14 23:55:00,
2013-06-14 17:00:00,86.1,33.1,29.66,SW,222,6.0,15.0,15,0.00,,---,0.00,VWS V14.01,2013-06-15 00:00:00,
2013-06-14 17:05:00,86.1,34.7,29.66,SW,221,10.0,15.0,16,0.00,,---,0.00,VWS V14.01,2013-06-15 00:05:00,
2013-06-14 17:10:00,85.8,34.5,29.66,WSW,245,12.0,15.0,16,0.00,,---,0.00,VWS V14.01,2013-06-15 00:10:00,
2013-06-14 17:15:00,85.5,35.8,29.66,West,271,2.0,16.0,17,0.00,,---,0.00,VWS V14.01,2013-06-15 00:15:00,
2013-06-14 17:20:00,85.9,37.5,29.66,SW,236,0.0,16.0,18,0.00,,---,0.00,VWS V14.01,2013-06-15 00:20:00,
2013-06-14 17:25:00,86.5,38.0,29.66,SSE,163,6.0,16.0,18,0.00,,---,0.00,VWS V14.01,2013-06-15 00:25:00,
2013-06-14 17:30:00,86.0,36.2,29.66,South,172,1.0,20.0,17,0.00,,---,0.00,VWS V14.01,2013-06-15 00:30:00,
2013-06-14 17:35:00,85.5,35.8,29.65,SSW,201,8.0,20.0,17,0.00,,---,0.00,VWS V14.01,2013-06-15 00:35:00,
2013-06-14 17:40:00,85.4,34.2,29.65,WSW,243,9.0,20.0,16,0.00,,---,0.00,VWS V14.01,2013-06-15 00:40:00,
2013-06-14 17:45:00,85.6,35.8,29.65,SW,226,5.0,20.0,17,0.00,,---,0.00,VWS V14.01,2013-06-15 00:45:00,
2013-06-14 17:50:00,85.2,34.0,29.65,West,264,3.0,20.0,16,0.00,,---,0.00,VWS V14.01,2013-06-15 00:50:00,
2013-06-14 17:55:00,85.0,35.3,29.65,SSW,207,16.0,20.0,17,0.00,,---,0.00,VWS V14.01,2013-06-15 00:55:00,
2013-06-14 18:00:00,84.2,36.2,29.65,SSW,200,14.0,18.0,18,0.00,,---,0.00,VWS V14.01,2013-06-15 01:00:00,
2013-06-14 18:05:00,83.5,36.9,29.65,SSW,213,14.0,22.0,19,0.00,,---,0.00,VWS V14.01,2013-06-15 01:05:00,
2013-06-14 18:10:00,82.9,36.5,29.65,SSW,213,16.0,27.0,19,0.00,,---,0.00,VWS V14.01,2013-06-15 01:10:00,
2013-06-14 18:15:00,82.7,36.3,29.65,SW,228,11.0,27.0,19,0.00,,---,0.00,VWS V14.01,2013-06-15 01:15:00,
2013-06-14 18:20:00,82.4,37.3,29.65,WSW,256,5.0,27.0,20,0.00,,---,0.00,VWS V14.01,2013-06-15 01:20:00,
2013-06-14 18:25:00,82.2,35.9,29.65,WSW,240,19.0,27.0,19,0.00,,---,0.00,VWS V14.01,2013-06-15 01:25:00,
2013-06-14 18:30:00,82.0,35.7,29.65,South,170,4.0,27.0,19,0.00,,---,0.00,VWS V14.01,2013-06-15 01:30:00,
2013-06-14 18:35:00,82.0,35.7,29.65,WSW,239,6.0,27.0,19,0.00,,---,0.00,VWS V14.01,2013-06-15 01:35:00,
2013-06-14 18:40:00,81.9,35.6,29.65,SW,222,15.0,27.0,19,0.00,,---,0.00,VWS V14.01,2013-06-15 01:40:00,
2013-06-14 18:45:00,81.7,36.8,29.65,WSW,245,11.0,27.0,20,0.00,,---,0.00,VWS V14.01,2013-06-15 01:45:00,
2013-06-14 18:50:00,81.6,36.7,29.66,SSW,207,14.0,27.0,20,0.00,,---,0.00,VWS V14.01,2013-06-15 01:50:00,
2013-06-14 18:55:00,81.3,36.4,29.66,SW,225,1.0,27.0,20,0.00,,---,0.00,VWS V14.01,2013-06-15 01:55:00,
2013-06-14 19:00:00,81.4,37.8,29.66,SW,228,0.0,6.0,21,0.00,,---,0.00,VWS V14.01,2013-06-15 02:00:00,
2013-06-14 19:05:00,81.2,37.6,29.66,WNW,294,6.0,12.0,21,0.00,,---,0.00,VWS V14.01,2013-06-15 02:05:00,
2013-06-14 19:10:00,80.8,38.5,29.67,East,91,3.0,12.0,22,0.00,,---,0.00,VWS V14.01,2013-06-15 02:10:00,
2013-06-14 19:15:00,80.7,39.5,29.67,WNW,298,9.0,12.0,23,0.00,,---,0.00,VWS V14.01,2013-06-15 02:15:00,
2013-06-14 19:20:00,80.2,38.0,29.67,WSW,246,0.0,12.0,22,0.00,,---,0.00,VWS V14.01,2013-06-15 02:20:00,
2013-06-14 19:25:00,80.5,39.3,29.67,WNW,297,7.0,12.0,23,0.00,,---,0.00,VWS V14.01,2013-06-15 02:25:00,
2013-06-14 19:30:00,80.2,40.2,29.68,NW,310,0.0,12.0,24,0.00,,---,0.00,VWS V14.01,2013-06-15 02:30:00,
2013-06-14 19:35:00,79.6,39.7,29.68,NW,315,1.0,12.0,24,0.00,,---,0.00,VWS V14.01,2013-06-15 02:35:00,
2013-06-14 19:40:00,79.5,38.5,29.68,WNW,301,2.0,12.0,23,0.00,,---,0.00,VWS V14.01,2013-06-15 02:40:00,
2013-06-14 19:45:00,78.9,40.1,29.68,WNW,284,2.0,12.0,25,0.00,,---,0.00,VWS V14.01,2013-06-15 02:45:00,
2013-06-14 19:50:00,77.6,38.0,29.68,SW,233,5.0,15.0,24,0.00,,---,0.00,VWS V14.01,2013-06-15 02:50:00,
2013-06-14 19:55:00,77.0,38.5,29.68,WNW,301,7.0,15.0,25,0.00,,---,0.00,VWS V14.01,2013-06-15 02:55:00,
2013-06-14 20:00:00,76.1,38.8,29.69,WSW,246,5.0,13.0,26,0.00,,---,0.00,VWS V14.01,2013-06-15 03:00:00,
2013-06-14 20:05:00,75.4,38.2,29.68,WSW,256,2.0,15.0,26,0.00,,---,0.00,VWS V14.01,2013-06-15 03:05:00,
2013-06-14 20:10:00,74.9,39.6,29.69,WSW,256,3.0,18.0,28,0.00,,---,0.00,VWS V14.01,2013-06-15 03:10:00,
2013-06-14 20:15:00,74.5,40.2,29.68,SW,231,2.0,18.0,29,0.00,,---,0.00,VWS V14.01,2013-06-15 03:15:00,
2013-06-14 20:20:00,74.2,39.9,29.68,SW,231,10.0,18.0,29,0.00,,---,0.00,VWS V14.01,2013-06-15 03:20:00,
2013-06-14 20:25:00,73.9,40.5,29.68,SW,219,9.0,18.0,30,0.00,,---,0.00,VWS V14.01,2013-06-15 03:25:00,
2013-06-14 20:30:00,73.5,40.2,29.68,SW,219,10.0,18.0,30,0.00,,---,0.00,VWS V14.01,2013-06-15 03:30:00,
2013-06-14 20:35:00,73.4,40.1,29.69,WNW,284,7.0,18.0,30,0.00,,---,0.00,VWS V14.01,2013-06-15 03:35:00,
2013-06-14 20:40:00,73.4,38.3,29.69,WSW,242,2.0,18.0,28,0.00,,---,0.00,VWS V14.01,2013-06-15 03:40:00,
2013-06-14 20:45:00,73.3,37.3,29.69,WNW,283,3.0,18.0,27,0.00,,---,0.00,VWS V14.01,2013-06-15 03:45:00,
2013-06-14 20:50:00,73.2,38.2,29.70,NNE,25,6.0,18.0,28,0.00,,---,0.00,VWS V14.01,2013-06-15 03:50:00,
2013-06-14 20:55:00,72.3,41.6,29.70,ENE,57,0.0,18.0,33,0.00,,---,0.00,VWS V14.01,2013-06-15 03:55:00,
2013-06-14 21:00:00,71.4,43.8,29.70,NE,37,1.0,4.0,37,0.00,,---,0.00,VWS V14.01,2013-06-15 04:00:00,
2013-06-14 21:01:00,71.2,44.3,29.70,NE,42,2.0,4.0,38,0.00,,---,0.00,VWS V14.01,2013-06-15 04:01:00,
2013-06-14 21:02:00,71.2,44.3,29.70,East,80,1.0,4.0,38,0.00,,---,0.00,VWS V14.01,2013-06-15 04:02:00,
2013-06-14 21:03:00,71.0,44.1,29.70,East,93,2.0,4.0,38,0.00,,---,0.00,VWS V14.01,2013-06-15 04:03:00,
2013-06-14 21:04:00,70.9,44.0,29.70,ENE,67,3.0,4.0,38,0.00,,---,0.00,VWS V14.01,2013-06-15 04:04:00,
2013-06-14 21:05:00,70.9,44.0,29.70,ENE,73,0.0,4.0,38,0.00,,---,0.00,VWS V14.01,2013-06-15 04:05:00,
2013-06-14 21:10:00,70.6,43.8,29.70,WNW,287,0.0,4.0,38,0.00,,---,0.00,VWS V14.01,2013-06-15 04:10:00,
2013-06-14 21:15:00,70.6,43.1,29.70,NNW,335,5.0,6.0,37,0.00,,---,0.00,VWS V14.01,2013-06-15 04:15:00,
2013-06-14 21:21:00,70.9,43.4,29.70,NNW,348,3.0,8.0,37,0.00,,---,0.00,VWS V14.01,2013-06-15 04:21:00,
2013-06-14 21:26:00,71.1,42.1,29.70,North,360,3.0,8.0,35,0.00,,---,0.00,VWS V14.01,2013-06-15 04:26:00,
2013-06-14 21:31:00,71.6,43.3,29.71,NNW,340,5.0,10.0,36,0.00,,---,0.00,VWS V14.01,2013-06-15 04:31:00,
2013-06-14 21:36:00,71.6,42.5,29.71,SSW,208,0.0,11.0,35,0.00,,---,0.00,VWS V14.01,2013-06-15 04:36:00,
2013-06-14 21:41:00,71.6,44.7,29.71,NNW,346,0.0,11.0,38,0.00,,---,0.00,VWS V14.01,2013-06-15 04:41:00,
2013-06-14 21:46:00,70.9,44.7,29.71,WNW,297,2.0,11.0,39,0.00,,---,0.00,VWS V14.01,2013-06-15 04:46:00,
2013-06-14 21:51:00,70.6,43.8,29.72,SSW,200,1.0,13.0,38,0.00,,---,0.00,VWS V14.01,2013-06-15 04:51:00,
2013-06-14 21:56:00,71.1,42.1,29.72,NW,325,0.0,13.0,35,0.00,,---,0.00,VWS V14.01,2013-06-15 04:56:00,
2013-06-14 22:01:00,71.1,42.8,29.72,NNW,331,1.0,6.0,36,0.00,,---,0.00,VWS V14.01,2013-06-15 05:01:00,
2013-06-14 22:06:00,71.0,44.1,29.72,ESE,107,1.0,9.0,38,0.00,,---,0.00,VWS V14.01,2013-06-15 05:06:00,
2013-06-14 22:11:00,70.9,43.4,29.73,SW,222,1.0,11.0,37,0.00,,---,0.00,VWS V14.01,2013-06-15 05:11:00,
2013-06-14 22:16:00,71.1,41.3,29.72,SSW,213,5.0,11.0,34,0.00,,---,0.00,VWS V14.01,2013-06-15 05:16:00,
2013-06-14 22:21:00,71.5,40.1,29.72,SW,228,6.0,11.0,32,0.00,,---,0.00,VWS V14.01,2013-06-15 05:21:00,
2013-06-14 22:26:00,72.0,39.7,29.72,SW,232,11.0,17.0,31,0.00,,---,0.00,VWS V14.01,2013-06-15 05:26:00,
2013-06-14 22:31:00,71.9,39.7,29.72,West,270,8.0,17.0,31,0.00,,---,0.00,VWS V14.01,2013-06-15 05:31:00,
2013-06-14 22:36:00,71.6,36.8,29.72,SW,224,11.0,17.0,28,0.00,,---,0.00,VWS V14.01,2013-06-15 05:36:00,
2013-06-14 22:41:00,72.0,37.1,29.72,West,263,12.0,17.0,28,0.00,,---,0.00,VWS V14.01,2013-06-15 05:41:00,
2013-06-14 22:46:00,72.0,37.1,29.72,WSW,249,12.0,17.0,28,0.00,,---,0.00,VWS V14.01,2013-06-15 05:46:00,
2013-06-14 22:51:00,72.3,34.5,29.72,WSW,255,6.0,17.0,25,0.00,,---,0.00,VWS V14.01,2013-06-15 05:51:00,
2013-06-14 22:56:00,72.5,32.6,29.72,SW,214,6.0,17.0,23,0.00,,---,0.00,VWS V14.01,2013-06-15 05:56:00,
2013-06-14 23:01:00,72.7,31.7,29.72,SSW,210,5.0,11.0,22,0.00,,---,0.00,VWS V14.01,2013-06-15 06:01:00,
2013-06-14 23:06:00,72.9,28.3,29.72,SW,219,10.0,13.0,19,0.00,,---,0.00,VWS V14.01,2013-06-15 06:06:00,
2013-06-14 23:11:00,73.4,27.4,29.71,SW,228,11.0,16.0,18,0.00,,---,0.00,VWS V14.01,2013-06-15 06:11:00,
2013-06-14 23:16:00,74.1,23.5,29.71,SW,233,11.0,19.0,15,0.00,,---,0.00,VWS V14.01,2013-06-15 06:16:00,
2013-06-14 23:21:00,74.6,23.9,29.72,West,262,5.0,20.0,15,0.00,,---,0.00,VWS V14.01,2013-06-15 06:21:00,
2013-06-14 23:26:00,74.7,27.0,29.72,West,274,12.0,20.0,17,0.00,,---,0.00,VWS V14.01,2013-06-15 06:26:00,
2013-06-14 23:31:00,75.0,27.3,29.72,SSW,208,9.0,21.0,17,0.00,,---,0.00,VWS V14.01,2013-06-15 06:31:00,
2013-06-14 23:36:00,74.9,28.6,29.71,SW,222,15.0,21.0,18,0.00,,---,0.00,VWS V14.01,2013-06-15 06:36:00,
2013-06-14 23:41:00,74.8,29.8,29.72,WSW,252,12.0,21.0,19,0.00,,---,0.00,VWS V14.01,2013-06-15 06:41:00,
2013-06-14 23:46:00,74.3,31.9,29.72,SW,231,10.0,21.0,21,0.00,,---,0.00,VWS V14.01,2013-06-15 06:46:00,
2013-06-14 23:51:00,73.9,32.7,29.71,South,190,7.0,21.0,22,0.00,,---,0.00,VWS V14.01,2013-06-15 06:51:00,
2013-06-14 23:56:00,73.2,32.1,29.71,SW,217,9.0,21.0,22,0.00,,---,0.00,VWS V14.01,2013-06-15 06:56:00,